Total_Precipitation_Accumulation
0.00 0.00 0.00 0.00 0.00 0.00 0.00 0.00 0.00 0.00 0.00 0.00 0.00 0.00 0.00 0.00 0.00 0.00 0.00 0.00 0.00 0.00 0.00 0.00 0.00 0.00 0.00 0.00 0.00 0.00 0.00 0.00 0.00 0.00 0.00 0.00 0.00 0.00 0.00 0.00 0.00 0.00 0.00 0.00 0.00 0.00 0.01 0.01 0.00
0.00 0.00 0.00 0.00 0.00 0.00 0.00 0.00 0.00 0.00 0.00 0.00 0.00 0.00 0.00 0.00 0.00 0.00 0.00 0.00 0.00 0.00 0.00 0.00 0.00 0.00 0.00 0.00 0.00 0.00 0.00 0.00 0.00 0.00 0.00 0.00 0.00 0.00 0.00 0.00 0.00 0.00 0.00 0.00 0.00 0.00 0.00 0.00 0.00
0.00 0.00 0.00 0.00 0.00 0.00 0.00 0.00 0.00 0.00 0.00 0.00 0.00 0.00 0.00 0.00 0.00 0.00 0.00 0.00 0.00 0.00 0.00 0.00 0.00 0.00 0.00 0.00 0.00 0.00 0.00 0.00 0.00 0.00 0.00 0.00 0.00 0.00 0.00 0.00 0.00 0.00 0.00 0.00 0.00 0.00 0.00 0.00 0.00
0.00 0.00 0.00 0.00 0.00 0.00 0.00 0.00 0.00 0.00 0.00 0.00 0.00 0.00 0.00 0.00 0.00 0.00 0.00 0.00 0.00 0.00 0.00 0.00 0.00 0.00 0.00 0.00 0.00 0.00 0.00 0.00 0.00 0.00 0.00 0.00 0.00 0.00 0.00 0.00 0.00 0.02 0.02 0.01 0.01 0.02 0.00 0.00 0.00
0.00 0.00 0.00 0.00 0.00 0.00 0.00 0.00 0.00 0.00 0.00 0.00 0.00 0.00 0.00 0.00 0.00 0.00 0.00 0.00 0.00 0.00 0.00 0.00 0.00 0.00 0.00 0.00 0.00 0.00 0.00 0.00 0.00 0.00 0.00 0.00 0.00 0.00 0.00 0.00 0.00 0.00 0.02 0.00 0.01 0.01 0.00 0.00 0.00
0.00 0.00 0.00 0.00 0.00 0.00 0.00 0.00 0.00 0.00 0.00 0.00 0.00 0.00 0.00 0.00 0.00 0.00 0.00 0.00 0.00 0.00 0.00 0.00 0.00 0.00 0.00 0.00 0.00 0.00 0.00 0.00 0.00 0.00 0.00 0.00 0.00 0.00 0.00 0.00 0.00 0.01 0.01 0.01 0.01 0.00 0.00 0.00 0.00
0.00 0.00 0.00 0.00 0.00 0.00 0.00 0.00 0.00 0.00 0.00 0.00 0.00 0.00 0.00 0.00 0.00 0.00 0.00 0.00 0.00 0.00 0.00 0.00 0.00 0.00 0.00 0.00 0.00 0.00 0.00 0.00 0.00 0.00 0.00 0.00 0.00 0.00 0.00 0.00 0.00 0.00 0.01 0.01 0.00 0.00 0.00 0.00 0.00
0.00 0.00 0.00 0.00 0.00 0.00 0.00 0.00 0.00 0.00 0.00 0.00 0.00 0.00 0.00 0.00 0.00 0.00 0.00 0.00 0.00 0.00 0.00 0.01 0.00 0.00 0.00 0.00 0.00 0.00 0.00 0.00 0.00 0.00 0.00 0.00 0.00 0.00 0.00 0.00 0.00 0.00 0.01 0.00 0.00 0.00 0.00 0.02 0.11
0.00 0.00 0.00 0.00 0.00 0.00 0.00 0.00 0.00 0.00 0.00 0.00 0.00 0.00 0.00 0.00 0.00 0.00 0.00 0.00 0.00 0.00 0.00 0.01 0.01 0.00 0.00 0.00 0.00 0.00 0.00 0.00 0.00 0.00 0.00 0.00 0.00 0.00 0.00 0.00 0.02 0.08 0.01 0.00 0.00 0.00 0.00 0.03 0.04
0.00 0.00 0.00 0.00 0.00 0.00 0.00 0.00 0.00 0.00 0.00 0.00 0.00 0.00 0.00 0.00 0.00 0.00 0.00 0.00 0.00 0.00 0.00 0.00 0.01 0.01 0.00 0.00 0.00 0.00 0.00 0.00 0.00 0.00 0.00 0.00 0.00 0.00 0.00 0.00 0.02 0.08 0.08 0.00 0.00 0.00 0.00 0.01 0.00
0.00 0.00 0.00 0.00 0.00 0.00 0.00 0.00 0.00 0.00 0.00 0.00 0.00 0.00 0.00 0.00 0.00 0.00 0.00 0.00 0.00 0.00 0.00 0.00 0.00 0.03 0.02 0.00 0.00 0.00 0.00 0.00 0.00 0.00 0.00 0.00 0.00 0.02 0.01 0.03 0.01 0.01 0.01 0.00 0.00 0.00 0.00 0.00 0.00
0.00 0.00 0.00 0.00 0.00 0.00 0.00 0.00 0.00 0.00 0.00 0.00 0.00 0.00 0.00 0.00 0.00 0.00 0.00 0.00 0.00 0.00 0.00 0.00 0.02 0.09 0.25 0.18 0.04 0.00 0.00 0.00 0.00 0.00 0.00 0.00 0.00 0.02 0.01 0.03 0.02 0.02 0.02 0.01 0.00 0.00 0.00 0.00 0.01
0.00 0.00 0.00 0.00 0.00 0.00 0.00 0.00 0.00 0.00 0.00 0.00 0.00 0.00 0.00 0.00 0.00 0.00 0.00 0.00 0.00 0.00 0.00 0.00 0.00 0.04 0.14 0.25 0.31 0.22 0.01 0.00 0.00 0.00 0.00 0.00 0.00 0.01 0.01 0.02 0.03 0.01 0.02 0.01 0.01 0.01 0.01 0.01 0.01
0.00 0.00 0.00 0.00 0.00 0.00 0.00 0.00 0.00 0.00 0.00 0.00 0.00 0.00 0.00 0.00 0.00 0.00 0.00 0.00 0.00 0.00 0.00 0.00 0.00 0.00 0.05 0.21 0.09 0.17 0.15 0.06 0.00 0.00 0.00 0.00 0.00 0.00 0.01 0.01 0.01 0.02 0.03 0.03 0.02 0.01 0.02 0.01 0.01
0.00 0.00 0.00 0.00 0.00 0.00 0.00 0.00 0.00 0.00 0.00 0.00 0.00 0.00 0.00 0.00 0.00 0.00 0.00 0.00 0.00 0.00 0.00 0.00 0.00 0.00 0.00 0.07 0.13 0.10 0.22 0.25 0.10 0.01 0.00 0.00 0.00 0.00 0.01 0.00 0.01 0.01 0.01 0.03 0.02 0.03 0.02 0.02 0.02
0.00 0.00 0.00 0.00 0.00 0.00 0.00 0.00 0.00 0.00 0.00 0.00 0.00 0.00 0.00 0.00 0.00 0.00 0.00 0.00 0.00 0.00 0.00 0.00 0.00 0.00 0.00 0.04 0.18 0.12 0.16 0.29 0.19 0.08 0.00 0.00 0.00 0.00 0.01 0.01 0.00 0.01 0.02 0.01 0.01 0.01 0.01 0.01 0.02
0.00 0.00 0.00 0.00 0.00 0.00 0.00 0.00 0.00 0.00 0.00 0.00 0.00 0.00 0.00 0.00 0.00 0.00 0.00 0.00 0.00 0.00 0.00 0.00 0.00 0.00 0.00 0.06 0.11 0.12 0.12 0.20 0.15 0.10 0.03 0.01 0.00 0.00 0.01 0.01 0.00 0.00 0.01 0.01 0.00 0.01 0.00 0.01 0.02
0.00 0.00 0.00 0.00 0.00 0.00 0.00 0.00 0.00 0.00 0.00 0.00 0.00 0.00 0.00 0.00 0.00 0.00 0.00 0.00 0.00 0.00 0.00 0.00 0.00 0.00 0.00 0.03 0.16 0.20 0.30 0.27 0.25 0.25 0.17 0.10 0.01 0.01 0.00 0.00 0.00 0.01 0.00 0.01 0.01 0.00 0.01 0.01 0.02
0.00 0.00 0.00 0.00 0.00 0.00 0.00 0.00 0.00 0.00 0.00 0.00 0.00 0.00 0.00 0.00 0.00 0.00 0.00 0.00 0.00 0.00 0.00 0.00 0.00 0.00 0.00 0.04 0.16 0.16 0.15 0.16 0.17 0.20 0.25 0.21 0.07 0.00 0.00 0.00 0.00 0.00 0.01 0.01 0.02 0.03 0.03 0.04 0.04
0.00 0.00 0.00 0.00 0.00 0.00 0.00 0.00 0.00 0.00 0.00 0.00 0.00 0.00 0.00 0.00 0.00 0.00 0.00 0.00 0.00 0.00 0.00 0.00 0.00 0.00 0.01 0.00 0.05 0.18 0.21 0.20 0.16 0.13 0.21 0.28 0.15 0.03 0.00 0.00 0.00 0.00 0.00 0.01 0.03 0.04 0.06 0.08 0.08
0.00 0.00 0.00 0.00 0.00 0.00 0.02 0.00 0.00 0.00 0.00 0.00 0.00 0.00 0.00 0.00 0.00 0.00 0.00 0.00 0.00 0.00 0.00 0.00 0.00 0.00 0.02 0.01 0.15 0.29 0.28 0.33 0.33 0.25 0.10 0.06 0.14 0.03 0.01 0.00 0.00 0.00 0.01 0.01 0.01 0.02 0.03 0.04 0.05
0.00 0.00 0.00 0.00 0.00 0.00 0.05 0.06 0.00 0.00 0.00 0.00 0.00 0.00 0.00 0.00 0.00 0.00 0.00 0.00 0.00 0.00 0.00 0.00 0.00 0.00 0.05 0.18 0.33 0.31 0.24 0.25 0.11 0.06 0.09 0.12 0.23 0.12 0.02 0.01 0.00 0.00 0.00 0.00 0.01 0.01 0.02 0.03 0.04
0.01 0.01 0.00 0.01 0.02 0.01 0.02 0.06 0.00 0.01 0.08 0.06 0.03 0.02 0.01 0.01 0.02 0.01 0.01 0.01 0.00 0.00 0.00 0.00 0.01 0.10 0.13 0.19 0.48 0.54 0.50 0.26 0.15 0.16 0.27 0.30 0.31 0.39 0.18 0.08 0.05 0.04 0.05 0.04 0.01 0.01 0.02 0.03 0.04
0.01 0.01 0.02 0.05 0.06 0.04 0.00 0.02 0.07 0.51 0.50 0.32 0.17 0.10 0.07 0.06 0.05 0.04 0.04 0.04 0.03 0.04 0.04 0.01 0.01 0.02 0.12 0.16 0.31 0.60 0.97 1.33 1.50 1.21 0.79 0.60 0.67 0.66 0.51 0.30 0.25 0.24 0.23 0.14 0.05 0.03 0.02 0.06 0.05
0.02 0.04 0.05 0.04 0.07 0.01 0.02 0.04 0.22 0.45 0.43 0.35 0.29 0.20 0.17 0.12 0.10 0.09 0.08 0.07 0.07 0.09 0.13 0.14 0.08 0.05 0.03 0.06 0.13 0.22 0.38 0.68 1.16 1.83 2.56 2.53 2.10 1.80 1.68 0.94 0.44 0.25 0.12 0.08 0.09 0.07 0.04 0.07 0.10
0.01 0.02 0.02 0.04 0.03 0.04 0.05 0.21 0.66 0.57 0.79 0.52 0.74 0.44 0.32 0.24 0.16 0.12 0.13 0.12 0.12 0.13 0.17 0.21 0.21 0.20 0.11 0.09 0.13 0.22 0.24 0.30 0.55 0.70 1.08 1.94 2.61 2.30 2.49 2.55 1.73 1.06 0.58 0.42 0.37 0.23 0.13 0.08 0.12
0.05 0.01 0.00 0.03 0.08 0.10 0.25 0.69 0.59 0.46 0.76 1.49 0.84 0.48 0.64 0.60 0.35 0.20 0.18 0.24 0.32 0.27 0.22 0.31 0.35 0.48 0.40 0.25 0.18 0.23 0.26 0.24 0.27 0.38 0.78 1.01 0.97 1.21 1.51 1.57 1.23 1.39 1.52 1.05 0.64 0.50 0.47 0.40 0.19
0.05 0.05 0.08 0.06 0.08 0.18 0.34 0.43 0.45 0.39 0.82 0.86 1.17 1.25 0.67 0.75 0.61 0.34 0.26 0.32 0.32 0.42 0.28 0.37 0.62 0.91 0.64 0.56 0.43 0.38 0.36 0.28 0.25 0.18 0.25 0.57 1.06 1.12 0.93 0.82 0.65 0.64 0.75 0.83 0.45 0.28 0.29 0.32 0.29
0.08 0.03 0.03 0.06 0.12 0.29 0.60 0.52 0.77 0.87 1.08 1.32 1.06 1.15 1.30 0.79 1.07 0.81 0.49 0.44 0.59 0.77 0.33 0.39 0.75 1.49 1.25 0.80 0.54 0.58 0.34 0.47 0.27 0.20 0.17 0.34 0.48 0.72 0.75 0.67 0.52 0.43 0.35 0.31 0.22 0.14 0.12 0.18 0.21
0.12 0.08 0.06 0.13 0.18 0.24 0.75 0.71 0.91 1.10 0.93 0.77 0.80 0.75 0.76 0.86 0.91 1.19 0.94 0.76 0.77 0.42 0.44 0.40 0.43 0.47 1.29 1.04 0.72 0.54 0.31 0.30 0.33 0.27 0.22 0.20 0.24 0.29 0.37 0.43 0.46 0.35 0.24 0.19 0.17 0.16 0.14 0.14 0.17